Home   Weather   Rio de Janeiro   Past weeks

Flag for Brazil Past Weather in Rio de Janeiro, Rio de Janeiro, Brazil — Yesterday and Last 2 Weeks

Now
73 °F

Sunny.


Feels Like: 75 °F
Forecast: 67 / 85 °F
Wind: 3 mph from Northeast

Location: Rio De Janeiro Airport

Current Time: Apr 25, 2017 at 7:35:54 am

Latest Report: Apr 25, 2017 at 7:00 am


Visibility: 10 mi

Pressure: 29.98 "Hg

Humidity: 74%

Dew Point: 64 °F

Location of Rio de JaneiroLocation

Past Weather in Rio de Janeiro — Graph

°F

Rio de Janeiro Temperature Yesterday

Maximum temperature yesterday: 82 °F (at 12:00 pm)
Minimum temperature yesterday: 68 °F (at 5:00 am)
Average temperature yesterday: 74 °F

High & Low Weather Summary for the Past Weeks

 TemperatureHumidityPressure
High88 °F (Apr 11, 1:00 pm)100% (Apr 13, 4:00 am)30.15 "Hg (Apr 13, 4:00 am)
Low68 °F (Apr 24, 5:00 am)22% (Apr 23, 12:00 pm)29.80 "Hg (Apr 21, 3:00 pm)
Average77 °F78%29.99 "Hg
* Reported Apr 10 6:00 am — Apr 25 6:00 am, Rio de Janeiro, Weather by CustomWeather, © 2017

Note: Actual official high and low records may vary slightly from our data, if they occured in-between our weather recording intervals... More about our weather records

Advertising

Rio de Janeiro Weather History for the Previous 24 Hours

Scroll right to see more
 ConditionsComfort  
Time TempWeatherWind HumidityBarometerVisibility
6:00 am
Tue, Apr 25
68 °FClear.No wind83%29.98 "Hg10 mi
5:00 am70 °FPassing clouds.2 mph83%29.98 "HgN/A
4:00 am70 °FPassing clouds.2 mph83%29.98 "HgN/A
2:00 am70 °FPassing clouds.2 mph83%30.01 "HgN/A
1:00 am72 °FPassing clouds.2 mph83%30.04 "HgN/A
12:00 am72 °FPassing clouds.5 mph83%30.04 "HgN/A
11:00 pm
Mon, Apr 24
73 °FPassing clouds.5 mph74%30.07 "HgN/A
10:00 pm73 °FPassing clouds.3 mph74%30.07 "HgN/A
9:00 pm75 °FPassing clouds.5 mph74%30.07 "HgN/A
8:00 pm73 °FPassing clouds.5 mph74%30.04 "HgN/A
7:00 pm75 °FPassing clouds.8 mph69%30.04 "HgN/A
6:00 pm75 °FPassing clouds.8 mph69%30.04 "HgN/A
5:00 pm77 °FPartly sunny.10 mph69%30.01 "HgN/A
2:00 pm81 °FScattered clouds.9 mph66%30.04 "HgN/A
1:00 pm81 °FScattered clouds.6 mph66%30.07 "HgN/A
12:00 pm82 °FPartly sunny.3 mph62%30.09 "HgN/A
11:00 am79 °FPartly sunny.3 mph65%30.12 "HgN/A
10:00 am75 °FPartly sunny.2 mph74%30.15 "HgN/A
9:00 am75 °FPartly sunny.2 mph74%30.15 "HgN/A
8:00 am72 °FPartly sunny.2 mph83%30.12 "HgN/A
7:00 am68 °FPartly sunny.7 mph94%30.12 "HgN/A
Weather by CustomWeather, © 2017

See weather overviewHow to use our weather pages